CT2IRK-11 Weather Reports


Display with metric or nautical units.
time (UTC)temp
F
wind
direction
speed
MPH
gust
MPH
rain 1hr
in
rain 24hr
in
rain mn
in
humidity
%
barometer
mb
20260509162005 59 248 7.0 16.0 0.00 0.43 0.36 82 999.9
20260509160005 59 238 6.0 12.0 0.01 0.43 0.36 81 999.3
20260509155007 61 224 5.0 8.0 0.01 0.43 0.36 84 999.1
20260509154111 62 191 7.0 10.0 0.01 0.43 0.36 84 998.9
20260509153009 61 197 7.0 13.0 0.01 0.43 0.36 84 998.6
20260509152006 61 180 10.0 15.0 0.01 0.43 0.36 86 998.4
20260509151005 61 248 12.0 16.0 0.00 0.42 0.35 80 998.3
20260509150005 64 180 12.0 21.0 0.00 0.42 0.35 79 998.3
20260509145005 65 205 16.0 21.0 0.02 0.42 0.35 74 998.2
20260509143005 65 180 11.0 14.0 0.10 0.42 0.35 79 998.2
20260509142005 63 202 9.0 16.0 0.10 0.42 0.35 81 998.3
20260509140006 63 188 7.0 10.0 0.10 0.42 0.35 85 998.0
20260509135005 63 217 6.0 15.0 0.08 0.40 0.33 83 998.0
20260509132005 68 195 12.0 16.0 0.00 0.32 0.25 57 997.5
20260509131005 70 202 11.0 17.0 0.00 0.32 0.25 56 997.6
20260509124005 70 212 12.0 17.0 0.00 0.32 0.25 56 997.3
20260509122005 71 202 10.0 15.0 0.00 0.32 0.25 54 997.2
20260509121005 70 187 14.0 18.0 0.00 0.32 0.25 54 997.4
20260509115005 68 194 16.0 16.0 0.00 0.32 0.25 61 997.3
20260509114005 68 164 12.0 16.0 0.00 0.32 0.25 63 997.2
20260509113005 68 202 16.0 17.0 0.00 0.32 0.25 62 997.2
20260509112005 66 195 11.0 14.0 0.00 0.32 0.25 67 997.1
20260509111005 65 197 10.0 17.0 0.00 0.32 0.25 67 996.8
20260509110005 66 200 12.0 15.0 0.00 0.32 0.25 64 996.6
20260509105005 69 200 11.0 17.0 0.00 0.32 0.25 61 996.6
20260509104005 66 189 7.0 13.0 0.00 0.32 0.25 68 996.7
20260509103004 66 208 8.0 12.0 0.00 0.32 0.25 69 996.7
20260509102005 65 190 10.0 15.0 0.00 0.32 0.25 69 996.5
20260509094005 67 138 8.0 14.0 0.00 0.32 0.25 67 996.3
20260509093005 66 168 8.0 9.0 0.00 0.32 0.25 71 996.5
20260509092004 66 158 7.0 15.0 0.00 0.32 0.25 70 996.5
20260509091005 65 141 6.0 12.0 0.00 0.32 0.25 74 996.6
20260509090005 66 193 3.0 8.0 0.01 0.32 0.25 78 996.5
20260509085004 63 163 6.0 9.0 0.01 0.32 0.25 81 996.5
20260509083005 61 150 9.0 10.0 0.02 0.32 0.25 88 996.5
20260509082004 60 90 5.0 8.0 0.02 0.32 0.25 92 996.5
20260509081005 60 138 2.0 6.0 0.03 0.32 0.25 92 996.7
20260509080004 59 147 3.0 9.0 0.03 0.31 0.24 97 996.9
20260509075005 58 100 1.0 7.0 0.03 0.31 0.24 99 996.9
20260509074005 57 90 1.0 2.0 0.03 0.31 0.24 99 996.9
20260509073004 57 143 1.0 7.0 0.03 0.30 0.23 98 997.0
20260509072004 57 80 3.0 10.0 0.05 0.30 0.23 96 997.0
20260509071005 57 159 8.0 10.0 0.07 0.29 0.22 94 997.0
20260509070005 57 178 5.0 10.0 0.08 0.28 0.21 96 996.9
20260509065005 57 126 7.0 9.0 0.10 0.28 0.21 97 996.9
20260509064004 57 124 7.0 13.0 0.10 0.28 0.21 97 996.9
20260509062005 57 112 9.0 13.0 0.07 0.25 0.18 96 996.9
20260509061005 58 123 10.0 13.0 0.04 0.22 0.15 96 996.7
20260509055005 58 112 7.0 9.0 0.00 0.18 0.11 97 996.3
20260509054005 57 165 2.0 9.0 0.00 0.18 0.11 98 996.3
20260509053005 57 64 4.0 9.0 0.00 0.18 0.11 98 996.3
20260509051006 57 147 1.0 6.0 0.02 0.18 0.11 99 996.5
20260509050005 57 138 3.0 7.0 0.06 0.18 0.11 99 996.6
20260509045005 57 172 2.0 6.0 0.06 0.18 0.11 99 996.6
20260509044005 57 152 1.0 2.0 0.10 0.18 0.11 98 996.6
20260509043006 57 210 0.0 6.0 0.10 0.18 0.11 98 996.8
20260509042005 57 69 2.0 6.0 0.10 0.18 0.11 98 996.9
20260509041006 57 142 0.0 6.0 0.08 0.16 0.09 97 997.1
20260509040006 57 75 3.0 8.0 0.04 0.12 0.05 94 997.3
20260509035006 57 129 6.0 13.0 0.04 0.12 0.05 93 997.3
20260509034006 58 158 7.0 12.0 0.00 0.08 0.01 88 997.3
20260509032005 58 90 6.0 9.0 0.00 0.08 0.01 88 997.5
20260509031005 57 97 6.0 9.0 0.00 0.08 0.01 89 997.8
20260509030006 57 135 7.0 10.0 0.00 0.08 0.01 89 997.9
20260509025005 57 111 3.0 7.0 0.00 0.08 0.01 89 997.9
20260509024006 57 113 4.0 8.0 0.00 0.08 0.01 88 997.9
20260509023005 57 81 4.0 8.0 0.00 0.08 0.01 88 997.8
20260509021005 57 128 4.0 6.0 0.00 0.08 0.01 87 998.3
20260509020005 57 332 0.0 0.0 0.00 0.08 0.01 86 998.6
20260509015006 57 174 1.0 7.0 0.00 0.08 0.01 84 998.7
20260509014005 58 184 1.0 7.0 0.00 0.08 0.01 84 998.7
20260509013005 58 212 5.0 6.0 0.00 0.08 0.01 83 999.0
20260509012005 58 183 4.0 6.0 0.01 0.08 0.01 83 999.0
20260509011006 58 167 5.0 9.0 0.01 0.08 0.01 82 999.1
20260509010006 58 167 6.0 10.0 0.01 0.08 0.01 83 999.1
20260509005005 58 173 5.0 10.0 0.01 0.08 0.01 83 998.9
20260509004005 58 128 9.0 14.0 0.01 0.08 0.01 84 998.9
20260509003006 58 168 7.0 9.0 0.01 0.08 0.01 86 998.9
20260509001006 58 147 6.0 9.0 0.00 0.07 0.00 84 999.1
20260509000005 59 147 6.0 9.0 0.00 0.07 0.00 84 999.3
20260508235005 59 158 6.0 10.0 0.00 0.07 0.00 84 999.2
20260508234006 59 147 6.0 15.0 0.00 0.07 0.00 84 999.2
20260508232006 59 146 9.0 16.0 0.00 0.07 0.00 85 999.3
20260508231005 59 189 9.0 14.0 0.00 0.07 0.00 85 999.3
20260508230006 59 164 6.0 14.0 0.00 0.07 0.00 86 999.3
20260508224005 58 170 5.0 9.0 0.00 0.07 0.07 87 999.0
20260508223005 58 112 9.0 10.0 0.01 0.07 0.07 87 998.9
20260508222005 58 118 6.0 13.0 0.02 0.07 0.07 90 998.8
20260508221006 58 151 7.0 15.0 0.03 0.07 0.07 86 998.5
20260508220005 58 135 10.0 17.0 0.04 0.07 0.07 90 998.5
20260508215005 58 21 9.0 14.0 0.05 0.07 0.07 92 999.1
20260508214005 58 98 12.0 15.0 0.06 0.07 0.07 93 999.2
20260508212005 59 176 7.0 10.0 0.05 0.05 0.05 92 1000.3
20260508211005 59 145 7.0 10.0 0.04 0.04 0.04 93 1000.5
20260508210005 59 174 7.0 12.0 0.03 0.03 0.03 91 1000.3
20260508205005 60 132 2.0 6.0 0.02 0.02 0.02 93 1000.2
20260508204005 60 182 2.0 5.0 0.01 0.01 0.01 93 1000.2
20260508203005 60 176 0.0 2.0 0.01 0.01 0.01 92 1000.0
20260508202006 60 202 0.0 7.0 0.00 0.00 0.00 90 999.8
20260508201005 60 183 0.0 0.0 0.00 0.00 0.00 88 999.8
20260508200005 60 181 0.0 7.0 0.00 0.00 0.00 88 999.7
20260508195005 60 182 6.0 8.0 0.00 0.00 0.00 86 999.9
20260508194005 61 179 6.0 12.0 0.00 0.00 0.00 84 1000.0
20260508193005 61 171 6.0 12.0 0.00 0.00 0.00 83 1000.0
20260508192005 62 240 7.0 14.0 0.00 0.00 0.00 80 999.8
20260508190005 65 200 10.0 14.0 0.00 0.00 0.00 64 998.9
20260508185005 66 242 9.0 10.0 0.00 0.00 0.00 60 998.9
20260508184005 67 211 5.0 7.0 0.00 0.00 0.00 55 998.9
20260508183005 68 161 3.0 7.0 0.00 0.00 0.00 54 999.0
20260508182005 68 211 1.0 7.0 0.00 0.00 0.00 53 998.8
20260508181005 68 205 4.0 8.0 0.00 0.00 0.00 53 999.0
20260508175005 69 180 6.0 10.0 0.00 0.00 0.00 53 999.1
20260508174006 69 230 6.0 9.0 0.00 0.00 0.00 53 999.1
20260508173005 69 222 5.0 9.0 0.00 0.00 0.00 50 999.2
20260508172005 70 202 7.0 9.0 0.00 0.00 0.00 47 999.3
20260508171005 70 202 6.0 9.0 0.00 0.00 0.00 47 999.2
20260508170005 70 180 8.0 10.0 0.00 0.00 0.00 46 999.3
20260508164006 71 217 8.0 12.0 0.00 0.00 0.00 45 999.2
20260508163005 70 135 6.0 9.0 0.00 0.00 0.00 46 999.3